This is the latest recevied weather packets stored in our database for station/object K0NV. If no packets are shown the sender has not sent any weather packets the latest 10 day(s).
| Time | Temp. | Humidity | Pressure | Rain* | Wind** | Luminosity | Snow |
|---|---|---|---|---|---|---|---|
| 1777642006 | 10.56° C | 78% | 1020.2 hPa | 0 mm | - | 243 W/m² | - |
| 1777641702 | 11.11° C | 79% | 1020.1 hPa | 0 mm | - | 243 W/m² | - |
| 1777641397 | 10.56° C | 79% | 1020 hPa | 0 mm | - | 198 W/m² | - |
| 1777641092 | 10.56° C | 82% | 1020 hPa | 0 mm | - | 196 W/m² | - |
| 1777640789 | 10.56° C | 82% | 1020.3 hPa | 0 mm | - | 181 W/m² | - |
| 1777640486 | 10° C | 85% | 1020.3 hPa | 0 mm | - | 210 W/m² | - |
| 1777640183 | 9.44° C | 86% | 1020.1 hPa | 0 mm | - | 145 W/m² | - |
| 1777639879 | 9.44° C | 88% | 1020 hPa | 0 mm | - | 138 W/m² | - |
| 1777639577 | 8.89° C | 89% | 1019.9 hPa | 0 mm | - | 88 W/m² | - |
| 1777639274 | 9.44° C | 89% | 1019.9 hPa | 0 mm | - | 85 W/m² | - |
| 1777638969 | 8.89° C | 90% | 1019.9 hPa | 0 mm | - | 97 W/m² | - |
| 1777638665 | 8.89° C | 91% | 1019.8 hPa | 0 mm | - | 90 W/m² | - |
| 1777638362 | 8.89° C | 91% | 1019.9 hPa | 0 mm | - | 69 W/m² | - |
| 1777638058 | 8.89° C | 93% | 1020.1 hPa | 0 mm | - | 66 W/m² | - |
| 1777637755 | 8.33° C | 93% | 1020.1 hPa | 0 mm | - | 43 W/m² | - |
| 1777637451 | 8.33° C | 94% | 1020 hPa | 0 mm | - | 43 W/m² | - |
| 1777637149 | 8.33° C | 94% | 1019.8 hPa | 0 mm | - | 38 W/m² | - |
| 1777636845 | 8.33° C | 95% | 1019.7 hPa | 0 mm | - | 33 W/m² | - |
| 1777636541 | 7.78° C | 96% | 1019.8 hPa | 0 mm | - | 32 W/m² | - |
| 1777636237 | 7.78° C | 97% | 1019.8 hPa | 0 mm | - | 30 W/m² | - |
| 1777635937 | 7.22° C | 97% | 1019.6 hPa | 0 mm | - | 22 W/m² | - |
| 1777635633 | 7.22° C | 97% | 1019.5 hPa | 0 mm | - | 15 W/m² | - |
| 1777635331 | 7.22° C | 97% | 1019.5 hPa | 0 mm | - | 9 W/m² | - |
| 1777635027 | 7.22° C | 97% | 1019.3 hPa | 0 mm | - | 6 W/m² | - |
| 1777634723 | 7.22° C | 97% | 1019.3 hPa | 0 mm | - | 3 W/m² | - |
* Rain latest hour (hover to see other rain measurements)
** Current wind speed in m/s (hover to see current wind gust speed)